Change the Weather History Date:

Monday, September 22, 2014

  Actual Average Record
Temperature  
Mean Temperature 67 °F -  
Max Temperature 78 °F 68 °F 82 °F (1959)
Min Temperature 55 °F 53 °F 29 °F (1962)
Cooling Degree Days 2    
Growing Degree Days 17 (Base 50)    
Moisture  
Dew Point 55 °F    
Average Humidity 66    
Maximum Humidity 94    
Minimum Humidity 30    
Precipitation  
Precipitation 0.00 in - - ()
Sea Level Pressure  
Sea Level Pressure 29.73 in    
Wind  
Wind Speed 11 mph (West)    
Max Wind Speed 20 mph    
Max Gust Speed 29 mph    
Visibility 10 miles    
Events      
Averages and records for this station are not official NWS values.
T = Trace of Precipitation, MM = Missing Value Source: NWS Daily Summary

Daily Weather History Graph

Daily Weather History Graph

Search for Another Location

Airport or City:

Trip Planner

Search our weather history database for the weather conditions in past years. The results will help you decide how hot, cold, wet, or windy it might be!

Date:

Astronomy

Sep. 22, 2014 Rise Set
Actual Time 6:28 AM EDT 6:38 PM EDT
Civil Twilight 6:00 AM EDT 7:06 PM EDT
Nautical Twilight 5:28 AM EDT 7:38 PM EDT
Astronomical Twilight 4:55 AM EDT 8:11 PM EDT
Moon 4:53 AM EDT (9/22) 5:44 PM EDT (9/22)
Length of Visible Light 13h 05m
Length of Day
12h 09m
Waning Crescent, 2% of the Moon is Illuminated
Sep 22
Waning Crescent
Sep 24
New
Oct 1
First Quarter
Oct 8
Full
Oct 15
Last Quarter

Hourly Weather History & Observations

Time (EDT) Temp. Dew Point Humidity Pressure Visibility Wind Dir Wind Speed Gust Speed Precip Events Conditions
12:47 AM 69.1 °F 66.9 °F 93% 29.54 in 10.0 mi West 6.9 mph - N/A   Scattered Clouds
12:56 AM 69.1 °F 66.0 °F 90% 29.55 in 10.0 mi West 6.9 mph - N/A   Partly Cloudy
1:56 AM 68.0 °F 66.0 °F 93% 29.55 in 10.0 mi WSW 10.4 mph - N/A   Partly Cloudy
2:11 AM 68.0 °F 66.0 °F 93% 29.54 in 10.0 mi WSW 12.7 mph - N/A   Mostly Cloudy
2:56 AM 68.0 °F 64.9 °F 90% 29.56 in 10.0 mi SW 13.8 mph - N/A   Overcast
3:56 AM 69.1 °F 66.0 °F 90% 29.57 in 10.0 mi WSW 12.7 mph 20.7 mph N/A   Overcast
4:45 AM 69.1 °F 66.0 °F 90% 29.58 in 10.0 mi SW 11.5 mph - N/A   Scattered Clouds
4:56 AM 69.1 °F 66.0 °F 90% 29.59 in 10.0 mi SW 11.5 mph - N/A   Scattered Clouds
5:22 AM 68.0 °F 66.0 °F 93% 29.59 in 10.0 mi SW 8.1 mph - N/A   Partly Cloudy
5:53 AM 68.0 °F 66.2 °F 94% 29.62 in 9.0 mi SW 11.5 mph - N/A   Mostly Cloudy
5:56 AM 68.0 °F 66.0 °F 93% 29.62 in 9.0 mi SW 12.7 mph - N/A   Mostly Cloudy
6:23 AM 68.0 °F 64.9 °F 90% 29.63 in 10.0 mi WSW 8.1 mph - N/A   Scattered Clouds
6:56 AM 66.9 °F 64.9 °F 93% 29.65 in 10.0 mi WSW 6.9 mph - N/A   Clear
7:56 AM 69.1 °F 61.0 °F 75% 29.68 in 10.0 mi West 9.2 mph - N/A   Clear
8:56 AM 70.0 °F 55.9 °F 61% 29.70 in 10.0 mi West 12.7 mph - N/A   Clear
9:56 AM 72.0 °F 53.1 °F 51% 29.72 in 10.0 mi West 15.0 mph 24.2 mph N/A   Clear
10:56 AM 73.0 °F 53.1 °F 49% 29.74 in 10.0 mi WSW 13.8 mph 21.9 mph N/A   Clear
11:56 AM 75.0 °F 53.1 °F 46% 29.74 in 10.0 mi WSW 19.6 mph - N/A   Clear
12:56 PM 75.0 °F 51.1 °F 43% 29.74 in 10.0 mi West 17.3 mph 26.5 mph N/A   Clear
1:56 PM 75.9 °F 50.0 °F 40% 29.74 in 10.0 mi West 15.0 mph 27.6 mph N/A   Clear
2:56 PM 77.0 °F 46.0 °F 33% 29.77 in 10.0 mi West 19.6 mph 25.3 mph N/A   Clear
3:56 PM 75.9 °F 42.1 °F 30% 29.80 in 10.0 mi West 16.1 mph 24.2 mph N/A   Clear
4:56 PM 73.9 °F 43.0 °F 33% 29.82 in 10.0 mi WSW 16.1 mph 24.2 mph N/A   Clear
5:56 PM 71.1 °F 44.1 °F 38% 29.86 in 10.0 mi West 13.8 mph 20.7 mph N/A   Clear
6:56 PM 66.0 °F 44.1 °F 45% 29.90 in 10.0 mi West 10.4 mph - N/A   Clear
7:56 PM 63.0 °F 43.0 °F 48% 29.94 in 10.0 mi WNW 9.2 mph - N/A   Clear
8:56 PM 61.0 °F 42.1 °F 50% 29.97 in 10.0 mi NW 11.5 mph - N/A   Clear
9:56 PM 60.1 °F 42.1 °F 51% 30.02 in 10.0 mi NW 10.4 mph - N/A   Clear
10:56 PM 57.9 °F 41.0 °F 53% 30.04 in 10.0 mi NW 10.4 mph 28.8 mph N/A   Clear
11:56 PM 55.9 °F 39.9 °F 55% 30.06 in 10.0 mi NNW 15.0 mph 19.6 mph N/A   Clear